Regional Weather Roundup
Issued by NWS

Home | Current Version | Previous Version | Text Only | Print | Product List | Glossary On
Versions: 1 2 3 4 5 6 7 8 9 10 11 12 13 14 15 16 17 18 19 20 21 22 23 24 25 26 27 28 29 30 31 32 33 34 35 36 37 38 39 40 41 42 43 44 45 46 47 48 49 50
459
ASUS44 KLIX 181413
RWRLA
LOUISIANA WEATHER ROUNDUP
NATIONAL WEATHER SERVICE NEW ORLEANS LA
900 AM CDT WED OCT 18 2017

NOTE: "FAIR" INDICATES FEW OR NO CLOUDS BELOW 12,000 FEET WITH NO
      SIGNIFICANT WEATHER AND/OR OBSTRUCTIONS TO VISIBILITY.
      SKY/WX - SKY CONDITION AND SIGNIFICANT WEATHER.
      TMP - AIR TEMPERATURE.    DP   - DEWPOINT TEMPERATURE.
      RH  - RELATIVE HUMIDITY.  PRES - PRESSURE.
      HX  - HEAT INDEX.         WCI  - WIND CHILL INDEX.

*  THESE STATIONS ARE NOT NWS OR FAA STATIONS AND ARE NOT UNDER
   NWS QUALITY CONTROL.

LAZ040-048-061>063-065-066-069-181500-
SOUTHEAST LOUISIANA

CITY           SKY/WX    TMP DP  RH WIND       PRES   REMARKS
N.O. INTL ARPT SUNNY     70  61  73 E7        30.18R
N.O. LAKEFRONT SUNNY     68  59  73 E13       30.19R
N.O. DOWNTOWN* FAIR      67  59  75 NE9       30.19S
RESERVE*       FAIR      71  60  69 NE9       30.19R
SLIDELL        SUNNY     63  51  65 NE8       30.20R
BATON ROUGE    SUNNY     60  53  77 NE7       30.20R
BOOTHVILLE     SUNNY     78  66  66 NE7       30.16R
BELLE CHASSE   NOT AVBL
BOGALUSA*      PTSUNNY   61  51  71 E3        30.23S
GALLIANO*      SUNNY     70  63  77 NE7       30.17R
NEW ROADS*     FAIR      61  51  70 E5        30.20S
GONZALES*      FAIR      62  54  74 NE5       30.19R
HAMMOND*       SUNNY     63  50  63 NE5       30.21R
HOUMA*         SUNNY     68  63  83 NE9       30.17S
PORT FOURCHON* SUNNY     73  66  78 NE14G23   30.16R

$$

LAZ041-044-053-054-181500-
SOUTHWEST LOUISIANA

CITY           SKY/WX    TMP DP  RH WIND       PRES   REMARKS
LAKE CHARLES   SUNNY     62  57  83 E5        30.19R
LAFAYETTE      SUNNY     62  57  83 E5        30.19R
PATTERSON      NOT AVBL
SALT POINT       N/A     67  62  84 VRB6      30.15R
NEW IBERIA     SUNNY     62  54  74 NE6       30.19R
CHENAULT AIRPK NOT AVBL

$$

LAZ027-028-181500-
CENTRAL LOUISIANA

CITY           SKY/WX    TMP DP  RH WIND       PRES   REMARKS
FORT POLK      SUNNY     60  53  79 E5        30.19R
ALEXANDRIA INT SUNNY     58  52  80 CALM      30.19R
ALEXANDRIA     SUNNY     57  54  89 CALM      30.21R

$$

LAZ001-002-181500-
NORTHWEST LOUISIANA

CITY           SKY/WX    TMP DP  RH WIND       PRES   REMARKS
SHREVEPORT     SUNNY     55  51  86 CALM      30.20R
BARKSDALE AFB  SUNNY     55  49  80 CALM      30.21R
DTN SHREVEPORT SUNNY     55  49  80 CALM      30.21R

$$

LAZ014-016-181500-
NORTHEAST LOUISIANA

CITY           SKY/WX    TMP DP  RH WIND       PRES   REMARKS
MONROE         SUNNY     58  52  80 CALM      30.23R
TALLULAH       SUNNY     58  52  80 SE6       30.24R

$$





USA.gov is the U.S. government's official web portal to all federal, state and local government web resources and services.